Starlink 5605

operational
NORAD ID: 55411 Int'l Des: 2023-014 Owner: SPXS Country: US Constellation: starlink
LEOCIRCULAR

Starlink 5605について

説明を読み込み中...

リアルタイム位置

3D地球を読み込み中...

次回通過

高度履歴

Altitude vs Time

uPlot chart will show altitude changes over time

軌道要素

1 55411U 23014W 25302.52587890 .00004255 00000-0 36417-3 0 9992
2 55411 70.0011 35.3597 0003151 269.7940 90.2858 14.98335157152406
Epoch: Oct 29, 2025 • Age: 17 hours

現在のステータス

高度 582.3 km
速度 7.57 km/s
衛星直下点 -32.04°S, 109.78°W
打ち上げ日 Jan 31, 2023
運用期間 2.7 years
タイプ internet

技術仕様

分類 Payload
質量 305.00 kg
乾燥質量 290.00 kg
総質量 305.00 kg
長さ 0.20 m
直径 2.80 m
スパン 9.00 m
形状 Box + pan
製造者 SPXS
バスタイプ Starlink
フェーズステータス In Orbit
所有者/国 SPXS/US

大規模コンステレーション

Loading constellations...